Theta_e
335 346 357 356 355 355 356 356 356 354 352 350 349 348 345 343 341 340 340 342 342 343 342 343 345 347 346 345 345 342 337 336 337 337 338 338 337 339 338 338 335 331 336
342 348 356 356 355 354 355 356 356 355 353 349 347 346 344 342 340 338 338 340 342 344 344 343 345 346 346 345 342 337 336 336 336 335 334 334 339 336 336 336 337 331 337
344 347 349 355 354 354 356 354 354 353 351 350 347 345 342 340 337 337 337 339 340 344 346 348 347 346 343 340 335 334 336 338 338 336 333 324 326 334 333 336 336 338 333
346 346 346 354 354 354 354 353 353 352 351 349 347 343 342 338 336 336 337 338 340 343 342 342 342 340 340 339 337 338 339 339 337 333 325 325 328 338 335 333 333 335 337
344 345 347 354 353 351 350 350 351 351 351 348 347 344 342 337 337 337 337 337 339 339 338 338 338 338 338 339 339 339 339 338 336 330 324 324 328 336 339 341 338 338 335
341 342 349 352 352 350 348 346 346 348 348 347 347 345 341 338 338 337 337 337 337 337 337 336 337 337 338 338 338 340 339 336 331 326 324 325 332 340 341 340 341 342 342
340 343 347 352 350 348 347 345 344 345 347 348 348 344 342 340 338 337 337 338 338 338 338 338 339 340 340 340 340 339 336 334 326 324 328 329 330 338 338 340 342 342 343
343 344 346 349 350 349 346 346 347 347 348 349 348 344 343 342 341 339 337 337 338 339 339 340 340 341 341 339 337 334 332 330 324 324 324 325 337 337 335 339 339 338 338
344 343 343 344 346 347 346 347 347 347 348 349 347 346 344 344 343 341 339 337 338 339 341 340 341 341 339 333 330 328 331 328 318 320 322 321 336 335 340 339 337 335 334
342 343 341 341 342 341 340 345 346 346 345 345 345 343 341 341 342 343 341 340 338 339 340 340 341 339 333 328 326 331 327 323 315 316 317 320 337 338 338 337 335 333 330
341 343 342 341 340 339 338 338 343 343 342 342 340 339 337 334 334 337 337 339 340 340 341 341 340 335 328 328 322 324 319 312 313 313 316 337 338 336 334 334 332 330 328
336 341 342 342 341 337 340 335 336 337 336 335 335 333 331 332 333 336 334 337 340 341 340 339 337 327 317 303 303 312 310 312 314 317 319 337 335 332 332 331 328 326 325
337 339 342 343 342 337 337 333 331 333 332 332 333 330 328 331 331 331 331 332 331 332 327 319 311 305 301 300 298 303 309 311 313 318 328 334 331 329 327 326 325 324 322
338 339 341 342 341 339 336 333 332 331 331 331 331 329 325 327 328 327 328 328 327 325 319 310 304 297 297 296 296 301 307 310 311 314 324 330 328 327 324 322 320 319 318
336 338 340 342 341 340 335 333 332 331 330 333 330 329 326 324 326 325 325 325 324 321 315 307 298 296 295 295 294 299 305 307 309 311 314 325 326 322 321 319 317 316 316
336 338 340 341 341 340 337 333 332 331 330 328 328 328 327 324 324 325 323 323 322 320 312 302 297 295 294 294 293 296 303 305 306 308 309 313 322 319 316 314 314 313 314
328 338 340 340 340 339 338 335 333 332 331 328 327 326 327 324 322 324 323 321 320 317 302 296 295 294 294 294 292 292 300 302 304 304 303 303 307 316 314 311 311 311 311
311 324 337 342 341 339 338 337 335 333 332 329 327 326 326 325 323 322 322 321 316 307 299 296 295 294 292 292 290 291 293 300 301 301 299 298 298 298 306 308 308 307 307
305 308 319 334 339 339 339 338 336 333 331 330 328 327 326 324 323 322 321 319 307 301 298 298 294 293 291 290 291 290 291 293 298 299 296 295 296 294 294 306 305 304 303
304 304 307 320 336 338 339 338 335 332 331 330 330 329 327 325 321 321 319 313 304 299 298 299 296 293 291 290 293 293 292 291 293 295 294 294 294 292 291 290 289 291 302
303 303 304 307 323 335 337 334 333 331 331 329 330 330 329 326 322 320 318 311 304 302 300 298 295 293 289 290 291 291 290 290 289 290 290 290 291 290 289 288 288 288 289
303 303 302 304 312 326 334 335 333 333 332 332 330 329 328 325 322 319 316 311 305 302 297 295 295 291 289 289 289 289 288 289 288 288 289 291 289 288 288 288 287 287 286
299 302 303 302 305 318 329 331 319 320 319 320 322 326 324 322 321 320 316 312 307 303 299 297 297 295 289 288 288 290 285 286 286 286 286 286 286 286 286 287 286 286 285
298 299 301 303 304 307 322 327 327 327 325 325 327 327 322 320 320 319 313 311 306 305 301 301 298 297 293 288 287 288 285 287 285 283 285 285 285 285 284 285 285 285 285
297 297 298 299 302 305 310 327 326 325 326 319 320 322 321 318 318 317 313 311 306 304 304 301 298 295 294 291 288 286 285 284 283 283 282 283 284 285 285 284 284 283 284
299 300 299 297 298 300 305 319 325 325 323 313 311 316 316 315 314 313 312 309 307 304 302 300 299 298 293 292 291 287 287 286 284 283 281 281 282 283 284 284 283 283 283
Wind_Speed
3 6 16 15 14 14 13 14 15 15 14 14 13 13 12 11 10 9 8 8 8 6 9 8 10 12 12 12 12 11 11 11 11 11 11 12 11 10 9 8 8 4 5
10 7 18 16 14 13 14 13 13 14 14 13 12 12 11 10 9 8 8 8 7 7 6 10 9 11 13 13 10 10 11 11 10 9 9 9 8 8 8 7 7 6 5
12 8 11 16 15 13 13 13 12 14 14 14 13 11 10 9 9 10 10 10 8 8 13 14 12 14 13 11 10 11 11 10 8 7 7 3 3 7 6 5 4 4 4
11 7 7 14 14 13 13 13 13 14 15 14 13 11 11 10 10 10 10 11 9 11 11 11 12 11 11 10 10 11 10 9 7 7 3 3 2 7 6 4 4 4 3
9 8 9 15 15 14 12 11 12 12 14 14 13 13 12 11 11 11 11 10 9 10 9 9 9 9 10 10 10 9 9 8 6 4 2 2 2 3 7 6 2 3 2
7 7 11 15 15 14 13 13 13 12 12 13 14 14 12 12 12 11 11 11 9 8 8 8 9 9 8 8 9 8 7 7 5 3 2 1 2 6 10 10 9 10 9
8 6 9 15 15 14 13 13 13 13 13 15 16 14 13 12 11 11 10 9 9 8 8 8 8 8 8 8 8 7 7 8 5 5 3 2 3 8 9 10 13 15 16
10 8 8 13 14 13 12 12 11 12 13 15 15 13 12 12 11 11 10 8 7 7 7 7 8 7 7 8 7 7 7 8 6 5 4 3 4 8 8 11 13 14 14
8 8 6 7 9 12 11 11 11 11 10 12 12 12 11 10 10 9 9 8 7 6 6 7 6 7 7 8 8 7 8 9 5 3 3 2 4 7 10 11 14 14 14
7 7 7 6 6 6 6 10 9 11 9 8 9 9 9 8 9 9 7 7 6 5 5 5 6 7 8 9 10 12 10 9 5 4 2 2 5 10 13 12 13 13 13
10 9 7 7 7 6 6 6 8 10 10 8 6 6 5 2 2 4 7 6 5 5 5 6 7 7 9 9 9 9 8 3 3 2 1 5 11 12 12 12 13 12 12
12 11 10 8 7 6 5 6 5 5 5 5 4 5 3 3 3 4 6 7 5 4 5 4 7 8 6 4 3 6 3 3 3 2 1 8 11 11 13 13 10 12 11
12 10 13 11 9 7 6 4 3 3 3 4 6 5 4 3 2 3 3 2 2 4 3 5 5 3 4 3 3 3 3 3 2 2 2 10 10 10 11 10 10 10 9
13 12 11 12 10 9 4 5 5 5 4 4 5 6 4 3 3 4 3 4 3 3 4 3 3 4 4 5 4 4 4 3 2 2 4 10 10 11 10 9 9 9 8
13 13 12 11 10 9 8 5 5 6 5 7 6 6 5 4 4 4 4 3 3 3 3 3 4 4 4 4 4 4 4 4 4 3 3 10 10 10 9 9 8 8 7
11 15 11 13 11 10 11 8 7 6 6 5 5 5 6 5 4 4 4 4 4 4 4 4 4 4 3 3 4 3 4 3 3 4 3 4 9 9 8 7 7 7 7
9 12 14 13 11 12 13 9 7 7 7 7 6 8 9 7 6 6 5 5 4 4 6 4 4 4 4 3 4 3 3 3 3 4 3 3 4 7 7 7 8 7 6
6 9 13 13 14 13 14 11 8 8 7 7 7 7 11 11 10 7 5 5 4 4 5 4 4 3 3 2 2 2 3 3 3 3 3 3 3 3 5 6 7 7 7
9 8 9 11 15 17 14 11 11 9 8 7 6 7 11 12 11 9 7 6 7 5 4 5 2 3 3 2 3 2 2 3 3 3 3 3 2 3 2 5 7 7 6
8 8 8 8 12 14 12 10 7 6 8 7 9 9 10 9 11 10 6 7 8 6 5 4 4 2 3 4 3 3 2 1 2 3 3 2 2 3 3 4 3 4 6
7 8 9 9 13 10 9 10 10 11 10 9 9 11 11 11 11 11 7 8 8 9 11 9 4 4 2 3 4 2 2 2 2 1 2 2 3 3 3 3 2 2 3
11 9 8 10 11 9 9 9 7 10 9 11 10 11 11 11 11 11 11 10 11 8 8 9 6 4 3 5 4 3 1 2 2 2 1 2 4 3 3 3 3 3 3
8 10 9 9 10 10 11 6 3 4 3 2 4 8 9 12 14 13 13 11 12 10 11 12 10 9 5 3 4 5 3 5 2 1 0 1 4 3 3 2 3 3 4
10 8 8 8 9 9 8 8 11 10 10 8 10 11 10 13 13 12 13 12 12 9 10 11 9 7 6 6 2 2 2 3 5 1 2 1 2 4 3 2 2 3 4
8 7 8 7 7 8 9 11 10 11 9 4 4 8 9 9 13 14 14 12 13 9 8 10 10 8 4 6 5 4 2 2 2 4 3 3 2 3 3 3 3 4 3
6 7 7 6 8 7 7 10 13 13 10 5 4 7 7 7 8 12 14 14 12 11 10 9 8 9 6 5 4 4 5 5 4 4 3 2 3 2 1 2 4 4 3
Wind_Direction
222 171 148 152 148 144 152 147 143 137 132 132 131 122 119 116 112 108 111 108 102 104 131 150 148 138 122 111 98 91 85 84 82 75 69 62 70 76 75 69 66 54 70
142 169 152 155 153 159 154 151 143 139 139 141 136 124 120 116 110 107 112 108 103 91 89 146 138 131 115 99 94 90 91 89 83 77 68 50 46 72 74 72 62 78 73
147 148 152 151 158 165 157 149 151 149 145 143 143 132 130 125 121 121 124 124 119 82 70 85 100 99 95 93 91 96 94 85 79 83 89 69 30 71 78 80 41 38 110
145 140 145 150 152 151 147 150 147 150 151 149 148 145 142 133 127 124 128 128 124 94 79 79 82 92 93 91 95 99 91 79 70 77 104 105 357 80 81 74 34 38 43
142 143 152 151 149 152 154 155 157 160 156 154 154 152 147 138 131 126 125 125 118 117 114 110 105 101 98 93 98 95 80 76 64 73 124 65 344 27 60 50 36 8 360
125 132 155 149 148 155 161 164 167 171 170 164 164 155 150 142 134 128 125 123 122 117 108 101 98 97 94 91 93 86 72 57 61 66 95 278 305 61 55 39 37 38 51
128 133 148 149 154 160 165 167 172 176 178 181 165 160 157 148 139 134 131 129 126 123 118 114 108 103 95 88 82 77 72 62 78 92 77 43 318 59 55 56 65 61 56
147 143 151 156 159 163 165 166 167 176 185 190 164 168 164 160 149 145 143 139 133 126 125 113 108 100 87 79 79 83 85 79 69 80 61 23 38 62 59 78 69 61 49
148 142 145 155 160 161 164 168 173 175 172 160 166 172 171 165 160 156 153 151 146 139 128 122 117 94 79 75 75 70 91 101 84 73 70 23 6 77 80 83 80 71 60
149 155 152 154 153 156 160 170 183 166 167 176 177 175 167 168 170 168 161 165 158 150 133 136 112 101 93 80 86 97 92 87 81 69 43 324 92 89 82 80 74 69 65
177 174 167 163 166 159 159 181 182 171 167 175 173 156 150 144 204 192 152 175 154 164 165 122 109 104 84 77 80 90 85 70 77 56 20 93 101 89 82 77 77 75 71
189 189 188 179 175 166 173 169 167 171 165 165 166 168 149 172 209 170 158 167 156 189 109 122 114 92 79 71 59 65 71 65 54 32 342 108 104 93 82 77 76 75 73
190 194 196 189 185 177 176 168 169 166 163 168 175 173 166 151 144 132 134 138 128 103 71 72 76 69 90 92 71 79 84 72 52 22 79 106 105 100 86 86 82 81 79
195 200 197 198 192 190 177 178 180 174 175 182 183 169 159 162 158 150 154 157 151 133 124 113 108 105 87 86 94 95 92 90 65 42 46 90 102 103 104 101 93 87 79
215 211 204 201 198 195 192 183 178 189 187 197 184 179 164 170 174 158 161 157 155 142 144 137 125 114 105 98 89 110 106 98 86 66 49 88 100 109 107 101 94 83 74
212 219 209 212 201 197 200 191 189 190 191 188 179 181 174 169 170 179 164 169 169 161 153 149 152 133 118 113 102 107 121 111 99 91 69 70 100 110 109 103 93 78 76
213 207 208 212 206 205 204 192 192 197 194 197 187 176 181 174 182 183 178 173 173 157 140 131 121 109 112 91 104 104 122 124 116 101 84 73 71 94 110 100 101 80 69
213 204 209 204 202 207 210 196 196 197 198 202 191 184 188 184 183 182 179 185 162 148 145 144 137 105 107 128 133 110 119 147 136 133 112 99 86 58 70 98 92 76 57
224 212 220 209 200 210 209 204 201 199 199 203 184 193 190 190 186 179 183 179 156 151 156 154 139 134 143 132 138 96 101 147 165 140 142 123 113 96 73 91 82 60 45
222 227 216 213 215 207 204 203 200 189 200 198 200 200 187 193 183 178 175 165 157 154 153 156 142 101 133 151 111 88 29 75 151 161 169 144 125 97 81 71 46 13 19
241 217 220 210 216 204 201 200 205 212 202 202 201 206 194 193 184 182 175 169 173 172 182 164 129 140 120 164 114 50 42 53 118 135 160 179 156 136 126 121 94 39 357
237 230 219 217 222 209 200 206 203 208 217 208 202 201 193 188 186 185 179 180 184 171 160 168 160 136 135 184 136 107 153 335 2 15 148 194 172 145 128 100 86 68 37
240 233 218 213 220 221 207 193 117 88 81 139 192 204 196 185 184 191 186 184 183 189 180 182 179 162 153 194 218 143 122 216 145 342 352 207 169 148 137 126 73 65 59
264 248 232 214 201 217 204 191 204 209 206 204 203 210 192 182 187 190 182 183 183 190 193 187 180 173 140 157 138 149 46 146 162 191 275 228 167 168 165 160 108 98 88
308 305 297 264 222 205 194 196 202 214 220 189 201 200 202 199 185 183 184 183 184 185 201 184 179 166 171 148 146 152 133 47 63 129 188 232 281 208 203 177 162 147 103
358 1 351 318 287 250 203 203 205 212 212 181 195 191 191 196 196 192 188 188 186 184 186 180 178 178 176 157 151 162 159 161 186 149 134 187 194 244 225 203 175 167 138